TimeCST,TemperatureF,Dew PointF,Humidity,Sea Level PressureIn,VisibilityMPH,Wind Direction,Wind SpeedMPH,Gust SpeedMPH,PrecipitationIn,Events,Conditions,WindDirDegrees,DateUTC
12:53 AM,52.0,48.0,86,29.79,10.0,SSW,8.1,-,N/A,,Clear,200,2012-12-17 06:53:00
1:53 AM,52.0,48.0,86,29.79,10.0,SSW,8.1,-,N/A,,Overcast,200,2012-12-17 07:53:00
2:53 AM,52.0,48.0,86,29.79,10.0,South,5.8,-,N/A,,Overcast,190,2012-12-17 08:53:00
3:30 AM,51.8,48.2,88,29.80,10.0,South,5.8,-,N/A,,Overcast,190,2012-12-17 09:30:00
3:53 AM,52.0,48.0,86,29.77,10.0,Variable,4.6,-,N/A,,Overcast,0,2012-12-17 09:53:00
4:44 AM,53.6,48.2,82,29.79,10.0,Variable,5.8,-,N/A,,Overcast,0,2012-12-17 10:44:00
4:53 AM,53.1,48.9,86,29.77,9.0,South,5.8,-,N/A,,Overcast,190,2012-12-17 10:53:00
5:35 AM,53.6,48.2,82,29.78,9.0,SSW,4.6,-,N/A,,Overcast,210,2012-12-17 11:35:00
5:53 AM,53.1,48.9,86,29.76,10.0,South,8.1,-,N/A,,Overcast,190,2012-12-17 11:53:00
6:53 AM,53.1,50.0,89,29.75,10.0,SSW,6.9,-,N/A,,Overcast,200,2012-12-17 12:53:00
7:43 AM,53.6,50.0,88,29.76,10.0,South,3.5,-,0.01,,Overcast,190,2012-12-17 13:43:00
7:53 AM,53.1,51.1,93,29.74,7.0,SSW,6.9,-,0.01,,Overcast,200,2012-12-17 13:53:00
8:19 AM,53.6,50.0,88,29.75,10.0,Variable,3.5,-,N/A,,Overcast,0,2012-12-17 14:19:00
8:53 AM,53.1,51.1,93,29.73,10.0,South,4.6,-,N/A,,Overcast,180,2012-12-17 14:53:00
9:08 AM,53.6,51.8,94,29.75,2.0,South,8.1,-,0.03,Rain,Light Rain,180,2012-12-17 15:08:00
9:18 AM,53.6,51.8,94,29.75,6.0,South,6.9,-,0.03,Rain,Light Rain,180,2012-12-17 15:18:00
9:32 AM,53.6,51.8,94,29.75,3.0,South,6.9,-,0.05,Rain,Light Rain,180,2012-12-17 15:32:00
9:53 AM,53.1,51.1,93,29.73,4.0,South,6.9,-,0.05,,Overcast,180,2012-12-17 15:53:00
10:53 AM,54.0,52.0,93,29.69,4.0,Variable,4.6,-,N/A,,Overcast,0,2012-12-17 16:53:00
11:50 AM,53.6,51.8,94,29.69,1.8,South,4.6,-,0.02,Rain,Light Rain,180,2012-12-17 17:50:00
11:53 AM,54.0,52.0,93,29.67,1.5,Variable,4.6,-,0.02,Rain,Light Rain,0,2012-12-17 17:53:00
12:01 PM,53.6,51.8,94,29.68,3.0,South,5.8,-,0.00,,Overcast,190,2012-12-17 18:01:00
12:53 PM,55.0,53.1,93,29.65,10.0,WSW,4.6,-,0.00,,Overcast,240,2012-12-17 18:53:00
1:04 PM,55.4,53.6,94,29.66,9.0,Calm,Calm,-,N/A,,Overcast,0,2012-12-17 19:04:00
1:53 PM,55.0,52.0,89,29.63,10.0,Variable,5.8,-,0.00,,Mostly Cloudy,0,2012-12-17 19:53:00
2:03 PM,55.4,51.8,88,29.65,10.0,Variable,5.8,-,N/A,,Mostly Cloudy,0,2012-12-17 20:03:00
2:42 PM,55.4,51.8,88,29.64,10.0,Variable,6.9,-,N/A,,Scattered Clouds,0,2012-12-17 20:42:00
2:53 PM,55.9,52.0,87,29.62,10.0,Variable,5.8,-,N/A,,Partly Cloudy,0,2012-12-17 20:53:00
3:21 PM,55.4,51.8,88,29.65,10.0,Variable,5.8,-,N/A,,Mostly Cloudy,0,2012-12-17 21:21:00
3:29 PM,55.4,51.8,88,29.64,10.0,SW,8.1,16.1,N/A,,Scattered Clouds,230,2012-12-17 21:29:00
3:53 PM,55.0,50.0,83,29.63,10.0,Variable,4.6,-,N/A,,Partly Cloudy,0,2012-12-17 21:53:00
6:53 PM,46.0,44.1,93,29.66,10.0,SW,3.5,-,0.01,,Mostly Cloudy,230,2012-12-18 00:53:00
7:53 PM,48.0,44.1,86,29.68,10.0,WSW,4.6,-,N/A,,Scattered Clouds,250,2012-12-18 01:53:00
8:53 PM,48.0,44.1,86,29.67,10.0,WSW,4.6,-,N/A,,Partly Cloudy,250,2012-12-18 02:53:00
9:53 PM,48.0,44.1,86,29.68,10.0,WSW,5.8,-,N/A,,Mostly Cloudy,250,2012-12-18 03:53:00
10:03 PM,48.2,44.6,87,29.69,10.0,West,5.8,-,N/A,,Mostly Cloudy,260,2012-12-18 04:03:00
10:18 PM,48.2,44.6,87,29.69,10.0,West,8.1,-,N/A,,Overcast,260,2012-12-18 04:18:00
10:53 PM,48.0,45.0,89,29.70,10.0,West,9.2,-,N/A,,Overcast,270,2012-12-18 04:53:00
11:12 PM,48.2,44.6,87,29.71,10.0,West,9.2,-,N/A,,Overcast,270,2012-12-18 05:12:00
11:32 PM,48.2,44.6,87,29.72,10.0,West,8.1,-,N/A,,Overcast,270,2012-12-18 05:32:00
11:53 PM,48.0,44.1,86,29.71,10.0,West,9.2,-,N/A,,Overcast,270,2012-12-18 05:53:00